Time,TemperatureF,DewpointF,PressureIn,WindDirection,WindDirectionDegrees,WindSpeedMPH,WindSpeedGustMPH,Humidity,HourlyPrecipIn,Conditions,Clouds,dailyrainin,SoftwareType,DateUTC
2013-02-10 00:00:00,33.7,18.4,30.39,ENE,76,0.0,10.0,53,0.00,,,0.00,Wunderground v.1.15,2013-02-10 05:00:00,
2013-02-10 00:02:00,33.7,17.9,30.39,ENE,76,0.0,10.0,52,0.00,,,0.00,Wunderground v.1.15,2013-02-10 05:02:00,
2013-02-10 00:04:00,33.8,18.0,30.39,ENE,76,0.0,10.0,52,0.00,,,0.00,Wunderground v.1.15,2013-02-10 05:04:00,
2013-02-10 00:10:00,33.9,18.1,30.39,ENE,76,0.0,10.0,52,0.00,,,0.00,Wunderground v.1.15,2013-02-10 05:10:00,
2013-02-10 00:12:00,33.9,18.1,30.39,East,100,0.0,10.0,52,0.00,,,0.00,Wunderground v.1.15,2013-02-10 05:12:00,
2013-02-10 00:18:00,34.1,18.3,30.39,East,100,0.0,10.0,52,0.00,,,0.00,Wunderground v.1.15,2013-02-10 05:18:00,
2013-02-10 00:24:00,33.6,19.1,30.39,East,100,0.0,10.0,55,0.00,,,0.00,Wunderground v.1.15,2013-02-10 05:24:00,
2013-02-10 00:30:00,33.4,18.5,30.39,East,100,0.0,10.0,54,0.00,,,0.00,Wunderground v.1.15,2013-02-10 05:30:00,
2013-02-10 00:36:00,33.3,18.0,30.40,East,100,0.0,10.0,53,0.00,,,0.00,Wunderground v.1.15,2013-02-10 05:36:00,
2013-02-10 00:42:00,33.3,19.3,30.40,East,100,0.0,10.0,56,0.00,,,0.00,Wunderground v.1.15,2013-02-10 05:42:00,
2013-02-10 00:48:00,33.0,19.8,30.40,East,100,0.0,10.0,58,0.00,,,0.00,Wunderground v.1.15,2013-02-10 05:48:00,
2013-02-10 00:54:00,32.3,19.2,30.40,East,100,0.0,10.0,58,0.00,,,0.00,Wunderground v.1.15,2013-02-10 05:54:00,
2013-02-10 01:00:00,31.9,17.5,30.40,East,100,0.0,10.0,55,0.00,,,0.00,Wunderground v.1.15,2013-02-10 06:00:00,
2013-02-10 01:06:00,31.8,19.5,30.41,East,100,0.0,10.0,60,0.00,,,0.00,Wunderground v.1.15,2013-02-10 06:06:00,
2013-02-10 01:12:00,31.4,18.7,30.41,East,100,0.0,10.0,59,0.00,,,0.00,Wunderground v.1.15,2013-02-10 06:12:00,
2013-02-10 01:18:00,31.0,18.3,30.41,East,100,0.0,10.0,59,0.00,,,0.00,Wunderground v.1.15,2013-02-10 06:18:00,
2013-02-10 01:24:00,30.8,18.5,30.42,East,100,0.0,10.0,60,0.00,,,0.00,Wunderground v.1.15,2013-02-10 06:24:00,
2013-02-10 01:30:00,30.6,18.0,30.42,East,100,0.0,10.0,59,0.00,,,0.00,Wunderground v.1.15,2013-02-10 06:30:00,
2013-02-10 01:36:00,30.3,17.7,30.42,East,100,0.0,10.0,59,0.00,,,0.00,Wunderground v.1.15,2013-02-10 06:36:00,
2013-02-10 01:42:00,30.3,17.3,30.42,East,100,0.0,10.0,58,0.00,,,0.00,Wunderground v.1.15,2013-02-10 06:42:00,
2013-02-10 01:48:00,30.8,17.3,30.42,East,100,0.0,10.0,57,0.00,,,0.00,Wunderground v.1.15,2013-02-10 06:48:00,
2013-02-10 01:54:00,30.8,17.7,30.42,East,100,0.0,10.0,58,0.00,,,0.00,Wunderground v.1.15,2013-02-10 06:54:00,
2013-02-10 02:00:00,30.4,17.8,30.41,East,100,0.0,10.0,59,0.00,,,0.00,Wunderground v.1.15,2013-02-10 07:00:00,
2013-02-10 02:06:00,30.8,17.7,30.42,East,100,1.0,10.0,58,0.00,,,0.00,Wunderground v.1.15,2013-02-10 07:06:00,
2013-02-10 02:12:00,30.8,17.7,30.42,East,100,0.0,10.0,58,0.00,,,0.00,Wunderground v.1.15,2013-02-10 07:12:00,
2013-02-10 02:18:00,30.9,17.8,30.42,East,100,0.0,10.0,58,0.00,,,0.00,Wunderground v.1.15,2013-02-10 07:18:00,
2013-02-10 02:24:00,30.9,17.8,30.42,East,100,0.0,10.0,58,0.00,,,0.00,Wunderground v.1.15,2013-02-10 07:24:00,
2013-02-10 02:30:00,31.0,17.5,30.42,East,100,0.0,10.0,57,0.00,,,0.00,Wunderground v.1.15,2013-02-10 07:30:00,
2013-02-10 02:36:00,31.0,17.9,30.42,East,100,0.0,10.0,58,0.00,,,0.00,Wunderground v.1.15,2013-02-10 07:36:00,
2013-02-10 02:42:00,31.0,17.5,30.42,East,100,0.0,10.0,57,0.00,,,0.00,Wunderground v.1.15,2013-02-10 07:42:00,
2013-02-10 02:48:00,30.9,17.8,30.42,East,100,0.0,10.0,58,0.00,,,0.00,Wunderground v.1.15,2013-02-10 07:48:00,
2013-02-10 02:54:00,30.8,17.7,30.42,East,100,0.0,10.0,58,0.00,,,0.00,Wunderground v.1.15,2013-02-10 07:54:00,
2013-02-10 03:00:00,30.6,18.3,30.42,East,100,0.0,10.0,60,0.00,,,0.00,Wunderground v.1.15,2013-02-10 08:00:00,
2013-02-10 03:06:00,30.1,18.3,30.42,East,100,0.0,10.0,61,0.00,,,0.00,Wunderground v.1.15,2013-02-10 08:06:00,
2013-02-10 03:12:00,29.8,17.6,30.42,East,100,0.0,10.0,60,0.00,,,0.00,Wunderground v.1.15,2013-02-10 08:12:00,
2013-02-10 03:18:00,29.7,18.3,30.41,East,100,0.0,10.0,62,0.00,,,0.00,Wunderground v.1.15,2013-02-10 08:18:00,
2013-02-10 03:24:00,29.6,17.8,30.41,East,100,0.0,10.0,61,0.00,,,0.00,Wunderground v.1.15,2013-02-10 08:24:00,
2013-02-10 03:30:00,29.6,17.8,30.41,East,100,0.0,10.0,61,0.00,,,0.00,Wunderground v.1.15,2013-02-10 08:30:00,
2013-02-10 03:36:00,29.9,17.7,30.41,East,100,0.0,10.0,60,0.00,,,0.00,Wunderground v.1.15,2013-02-10 08:36:00,
2013-02-10 03:42:00,29.9,18.1,30.41,East,100,0.0,10.0,61,0.00,,,0.00,Wunderground v.1.15,2013-02-10 08:42:00,
2013-02-10 03:48:00,29.4,18.3,30.41,East,100,0.0,10.0,63,0.00,,,0.00,Wunderground v.1.15,2013-02-10 08:48:00,
2013-02-10 03:54:00,29.2,18.2,30.41,East,100,0.0,10.0,63,0.00,,,0.00,Wunderground v.1.15,2013-02-10 08:54:00,
2013-02-10 04:00:00,29.0,18.0,30.42,East,100,0.0,10.0,63,0.00,,,0.00,Wunderground v.1.15,2013-02-10 09:00:00,
2013-02-10 04:06:00,28.7,18.4,30.42,East,100,0.0,10.0,65,0.00,,,0.00,Wunderground v.1.15,2013-02-10 09:06:00,
2013-02-10 04:12:00,28.4,18.1,30.43,East,100,0.0,10.0,65,0.00,,,0.00,Wunderground v.1.15,2013-02-10 09:12:00,
2013-02-10 04:18:00,28.3,17.3,30.43,East,100,0.0,10.0,63,0.00,,,0.00,Wunderground v.1.15,2013-02-10 09:18:00,
2013-02-10 04:24:00,28.7,16.9,30.44,East,100,0.0,10.0,61,0.00,,,0.00,Wunderground v.1.15,2013-02-10 09:24:00,
2013-02-10 04:30:00,29.1,17.3,30.44,East,100,0.0,10.0,61,0.00,,,0.00,Wunderground v.1.15,2013-02-10 09:30:00,
2013-02-10 04:36:00,29.1,17.3,30.44,East,100,0.0,10.0,61,0.00,,,0.00,Wunderground v.1.15,2013-02-10 09:36:00,
2013-02-10 04:42:00,28.9,18.2,30.44,East,100,0.0,10.0,64,0.00,,,0.00,Wunderground v.1.15,2013-02-10 09:42:00,
2013-02-10 04:48:00,28.4,18.1,30.44,East,100,0.0,10.0,65,0.00,,,0.00,Wunderground v.1.15,2013-02-10 09:48:00,
2013-02-10 04:54:00,27.9,17.3,30.44,East,100,0.0,10.0,64,0.00,,,0.00,Wunderground v.1.15,2013-02-10 09:54:00,
2013-02-10 05:00:00,27.7,17.1,30.44,East,100,0.0,10.0,64,0.00,,,0.00,Wunderground v.1.15,2013-02-10 10:00:00,
2013-02-10 05:06:00,28.1,17.1,30.44,East,100,0.0,10.0,63,0.00,,,0.00,Wunderground v.1.15,2013-02-10 10:06:00,
2013-02-10 05:12:00,28.5,17.5,30.44,East,100,0.0,10.0,63,0.00,,,0.00,Wunderground v.1.15,2013-02-10 10:12:00,
2013-02-10 05:18:00,28.6,17.6,30.44,East,100,0.0,10.0,63,0.00,,,0.00,Wunderground v.1.15,2013-02-10 10:18:00,
2013-02-10 05:24:00,28.5,18.2,30.44,East,100,0.0,10.0,65,0.00,,,0.00,Wunderground v.1.15,2013-02-10 10:24:00,
2013-02-10 05:30:00,28.0,17.4,30.44,East,100,0.0,10.0,64,0.00,,,0.00,Wunderground v.1.15,2013-02-10 10:30:00,
2013-02-10 05:36:00,27.7,18.2,30.44,East,100,0.0,10.0,67,0.00,,,0.00,Wunderground v.1.15,2013-02-10 10:36:00,
2013-02-10 05:42:00,27.3,17.4,30.44,East,100,0.0,10.0,66,0.00,,,0.00,Wunderground v.1.15,2013-02-10 10:42:00,
2013-02-10 05:48:00,27.0,16.8,30.44,East,100,0.0,10.0,65,0.00,,,0.00,Wunderground v.1.15,2013-02-10 10:48:00,
2013-02-10 05:54:00,27.0,17.1,30.44,East,100,0.0,10.0,66,0.00,,,0.00,Wunderground v.1.15,2013-02-10 10:54:00,
2013-02-10 06:00:00,27.0,17.5,30.44,East,100,0.0,10.0,67,0.00,,,0.00,Wunderground v.1.15,2013-02-10 11:00:00,
2013-02-10 06:06:00,27.1,17.2,30.44,East,100,0.0,10.0,66,0.00,,,0.00,Wunderground v.1.15,2013-02-10 11:06:00,
2013-02-10 06:12:00,27.1,18.3,30.45,East,100,0.0,10.0,69,0.00,,,0.00,Wunderground v.1.15,2013-02-10 11:12:00,
2013-02-10 06:18:00,27.1,17.6,30.45,East,100,0.0,10.0,67,0.00,,,0.00,Wunderground v.1.15,2013-02-10 11:18:00,
2013-02-10 06:24:00,27.2,17.7,30.45,East,100,0.0,10.0,67,0.00,,,0.00,Wunderground v.1.15,2013-02-10 11:24:00,
2013-02-10 06:30:00,27.2,18.4,30.45,East,100,0.0,10.0,69,0.00,,,0.00,Wunderground v.1.15,2013-02-10 11:30:00,
2013-02-10 06:36:00,26.9,18.4,30.45,East,100,0.0,10.0,70,0.00,,,0.00,Wunderground v.1.15,2013-02-10 11:36:00,
2013-02-10 06:42:00,26.2,18.4,30.46,East,100,0.0,10.0,72,0.00,,,0.00,Wunderground v.1.15,2013-02-10 11:42:00,
2013-02-10 06:48:00,25.6,18.8,30.46,East,100,0.0,10.0,75,0.00,,,0.00,Wunderground v.1.15,2013-02-10 11:48:00,
2013-02-10 06:54:00,25.1,18.6,30.46,East,100,0.0,10.0,76,0.00,,,0.00,Wunderground v.1.15,2013-02-10 11:54:00,
2013-02-10 07:00:00,24.9,18.7,30.46,East,100,0.0,10.0,77,0.00,,,0.00,Wunderground v.1.15,2013-02-10 12:00:00,
2013-02-10 07:06:00,24.9,19.3,30.47,East,100,0.0,10.0,79,0.00,,,0.00,Wunderground v.1.15,2013-02-10 12:06:00,
2013-02-10 07:12:00,25.0,19.1,30.47,East,100,0.0,10.0,78,0.00,,,0.00,Wunderground v.1.15,2013-02-10 12:12:00,
2013-02-10 07:18:00,25.1,19.2,30.47,East,100,0.0,10.0,78,0.00,,,0.00,Wunderground v.1.15,2013-02-10 12:18:00,
2013-02-10 07:24:00,25.3,19.4,30.47,East,100,0.0,10.0,78,0.00,,,0.00,Wunderground v.1.15,2013-02-10 12:24:00,
2013-02-10 07:30:00,25.5,19.9,30.47,East,100,0.0,10.0,79,0.00,,,0.00,Wunderground v.1.15,2013-02-10 12:30:00,
2013-02-10 07:36:00,25.7,19.8,30.48,East,100,0.0,10.0,78,0.00,,,0.00,Wunderground v.1.15,2013-02-10 12:36:00,
2013-02-10 07:42:00,25.8,19.6,30.48,East,100,0.0,10.0,77,0.00,,,0.00,Wunderground v.1.15,2013-02-10 12:42:00,
2013-02-10 07:48:00,26.1,19.9,30.49,East,100,0.0,10.0,77,0.00,,,0.00,Wunderground v.1.15,2013-02-10 12:48:00,
2013-02-10 07:54:00,26.3,20.1,30.49,East,100,0.0,10.0,77,0.00,,,0.00,Wunderground v.1.15,2013-02-10 12:54:00,
2013-02-10 08:00:00,26.6,20.4,30.50,East,100,0.0,10.0,77,0.00,,,0.00,Wunderground v.1.15,2013-02-10 13:00:00,
2013-02-10 08:06:00,27.0,20.7,30.50,East,100,0.0,10.0,77,0.00,,,0.00,Wunderground v.1.15,2013-02-10 13:06:00,
2013-02-10 08:12:00,27.3,21.0,30.50,East,100,0.0,10.0,77,0.00,,,0.00,Wunderground v.1.15,2013-02-10 13:12:00,
2013-02-10 08:18:00,27.6,21.0,30.50,East,100,0.0,10.0,76,0.00,,,0.00,Wunderground v.1.15,2013-02-10 13:18:00,
2013-02-10 08:24:00,27.9,21.6,30.50,East,100,0.0,10.0,77,0.00,,,0.00,Wunderground v.1.15,2013-02-10 13:24:00,
2013-02-10 08:30:00,28.5,21.9,30.51,East,100,0.0,10.0,76,0.00,,,0.00,Wunderground v.1.15,2013-02-10 13:30:00,
2013-02-10 08:36:00,29.0,21.7,30.51,East,100,0.0,10.0,74,0.00,,,0.00,Wunderground v.1.15,2013-02-10 13:36:00,
2013-02-10 08:42:00,29.6,22.0,30.51,East,100,0.0,10.0,73,0.00,,,0.00,Wunderground v.1.15,2013-02-10 13:42:00,
2013-02-10 08:48:00,30.3,20.6,30.51,East,100,0.0,10.0,67,0.00,,,0.00,Wunderground v.1.15,2013-02-10 13:48:00,
2013-02-10 08:54:00,30.9,20.1,30.51,East,100,0.0,10.0,64,0.00,,,0.00,Wunderground v.1.15,2013-02-10 13:54:00,
2013-02-10 09:00:00,31.4,20.2,30.50,East,100,0.0,10.0,63,0.00,,,0.00,Wunderground v.1.15,2013-02-10 14:00:00,
2013-02-10 09:06:00,31.8,20.3,30.51,East,100,0.0,10.0,62,0.00,,,0.00,Wunderground v.1.15,2013-02-10 14:06:00,
2013-02-10 09:12:00,32.1,19.4,30.51,SE,124,0.0,10.0,59,0.00,,,0.00,Wunderground v.1.15,2013-02-10 14:12:00,
2013-02-10 09:18:00,32.3,19.2,30.51,SE,124,1.0,10.0,58,0.00,,,0.00,Wunderground v.1.15,2013-02-10 14:18:00,
2013-02-10 09:24:00,32.3,19.2,30.50,SE,124,1.0,10.0,58,0.00,,,0.00,Wunderground v.1.15,2013-02-10 14:24:00,
2013-02-10 09:30:00,32.3,19.2,30.51,East,80,2.0,10.0,58,0.00,,,0.00,Wunderground v.1.15,2013-02-10 14:30:00,
2013-02-10 09:36:00,32.6,20.2,30.51,ESE,117,2.0,10.0,60,0.00,,,0.00,Wunderground v.1.15,2013-02-10 14:36:00,
2013-02-10 09:42:00,32.9,19.7,30.51,East,93,2.0,10.0,58,0.00,,,0.00,Wunderground v.1.15,2013-02-10 14:42:00,
2013-02-10 09:48:00,33.2,19.6,30.51,NE,55,3.0,10.0,57,0.00,,,0.00,Wunderground v.1.15,2013-02-10 14:48:00,
2013-02-10 09:54:00,34.0,19.5,30.50,ESE,110,3.0,10.0,55,0.00,,,0.00,Wunderground v.1.15,2013-02-10 14:54:00,
2013-02-10 10:00:00,34.8,20.3,30.51,SSE,162,2.0,10.0,55,0.00,,,0.00,Wunderground v.1.15,2013-02-10 15:00:00,
2013-02-10 10:06:00,35.2,20.2,30.51,SSE,167,2.0,10.0,54,0.00,,,0.00,Wunderground v.1.15,2013-02-10 15:06:00,
2013-02-10 10:12:00,34.4,19.5,30.51,South,190,3.0,10.0,54,0.00,,,0.00,Wunderground v.1.15,2013-02-10 15:12:00,
2013-02-10 10:18:00,35.2,20.2,30.51,South,169,2.0,10.0,54,0.00,,,0.00,Wunderground v.1.15,2013-02-10 15:18:00,
2013-02-10 10:24:00,36.0,20.9,30.51,South,188,1.0,10.0,54,0.00,,,0.00,Wunderground v.1.15,2013-02-10 15:24:00,
2013-02-10 10:30:00,36.8,21.7,30.50,SE,131,2.0,10.0,54,0.00,,,0.00,Wunderground v.1.15,2013-02-10 15:30:00,
2013-02-10 10:36:00,36.6,21.9,30.50,ENE,68,3.0,10.0,55,0.00,,,0.00,Wunderground v.1.15,2013-02-10 15:36:00,
2013-02-10 10:42:00,36.8,21.3,30.51,South,177,3.0,10.0,53,0.00,,,0.00,Wunderground v.1.15,2013-02-10 15:42:00,
2013-02-10 10:48:00,37.5,21.9,30.51,ESE,109,2.0,10.0,53,0.00,,,0.00,Wunderground v.1.15,2013-02-10 15:48:00,
2013-02-10 10:54:00,37.0,21.9,30.51,East,98,3.0,10.0,54,0.00,,,0.00,Wunderground v.1.15,2013-02-10 15:54:00,
2013-02-10 11:00:00,37.0,21.9,30.51,South,171,1.0,10.0,54,0.00,,,0.00,Wunderground v.1.15,2013-02-10 16:00:00,
2013-02-10 11:06:00,37.5,21.0,30.50,SSW,192,1.0,10.0,51,0.00,,,0.00,Wunderground v.1.15,2013-02-10 16:06:00,
2013-02-10 11:12:00,38.0,20.5,30.50,SW,231,2.0,10.0,49,0.00,,,0.00,Wunderground v.1.15,2013-02-10 16:12:00,
2013-02-10 11:18:00,37.9,20.4,30.50,SE,141,2.0,10.0,49,0.00,,,0.00,Wunderground v.1.15,2013-02-10 16:18:00,
2013-02-10 11:24:00,38.0,21.0,30.49,SSE,163,2.0,10.0,50,0.00,,,0.00,Wunderground v.1.15,2013-02-10 16:24:00,
2013-02-10 11:30:00,37.7,20.7,30.48,SSW,194,2.0,2.0,50,0.00,,,0.00,Wunderground v.1.15,2013-02-10 16:30:00,
2013-02-10 11:36:00,37.7,20.2,30.48,SE,140,3.0,10.0,49,0.00,,,0.00,Wunderground v.1.15,2013-02-10 16:36:00,
2013-02-10 11:42:00,37.8,20.8,30.48,ESE,121,3.0,10.0,50,0.00,,,0.00,Wunderground v.1.15,2013-02-10 16:42:00,
2013-02-10 11:48:00,39.3,22.2,30.46,SE,136,2.0,10.0,50,0.00,,,0.00,Wunderground v.1.15,2013-02-10 16:48:00,
2013-02-10 11:54:00,40.3,22.6,30.47,SSE,151,2.0,10.0,49,0.00,,,0.00,Wunderground v.1.15,2013-02-10 16:54:00,
2013-02-10 12:00:00,39.9,21.8,30.47,WSW,241,2.0,2.0,48,0.00,,,0.00,Wunderground v.1.15,2013-02-10 17:00:00,
2013-02-10 12:06:00,39.7,21.6,30.47,SW,234,2.0,10.0,48,0.00,,,0.00,Wunderground v.1.15,2013-02-10 17:06:00,
2013-02-10 12:12:00,39.4,21.8,30.47,SW,217,2.0,10.0,49,0.00,,,0.00,Wunderground v.1.15,2013-02-10 17:12:00,
2013-02-10 12:18:00,40.2,22.5,30.47,WSW,251,2.0,10.0,49,0.00,,,0.00,Wunderground v.1.15,2013-02-10 17:18:00,
2013-02-10 12:24:00,40.1,22.4,30.47,SSE,162,2.0,10.0,49,0.00,,,0.00,Wunderground v.1.15,2013-02-10 17:24:00,
2013-02-10 12:30:00,40.1,22.4,30.47,SW,222,2.0,10.0,49,0.00,,,0.00,Wunderground v.1.15,2013-02-10 17:30:00,
2013-02-10 12:36:00,40.1,22.9,30.46,South,178,2.0,10.0,50,0.00,,,0.00,Wunderground v.1.15,2013-02-10 17:36:00,
2013-02-10 12:42:00,40.4,22.7,30.44,SSW,201,2.0,10.0,49,0.00,,,0.00,Wunderground v.1.15,2013-02-10 17:42:00,
2013-02-10 12:48:00,40.6,22.9,30.44,SSW,194,2.0,10.0,49,0.00,,,0.00,Wunderground v.1.15,2013-02-10 17:48:00,
2013-02-10 12:54:00,41.2,23.5,30.45,SSE,165,1.0,10.0,49,0.00,,,0.00,Wunderground v.1.15,2013-02-10 17:54:00,
2013-02-10 13:00:00,41.7,22.9,30.44,South,184,1.0,10.0,47,0.00,,,0.00,Wunderground v.1.15,2013-02-10 18:00:00,
2013-02-10 13:06:00,42.0,23.2,30.43,SSE,155,2.0,10.0,47,0.00,,,0.00,Wunderground v.1.15,2013-02-10 18:06:00,
2013-02-10 13:12:00,42.4,23.6,30.44,SSE,151,2.0,3.0,47,0.00,,,0.00,Wunderground v.1.15,2013-02-10 18:12:00,
2013-02-10 13:18:00,42.4,23.6,30.44,South,170,2.0,4.0,47,0.00,,,0.00,Wunderground v.1.15,2013-02-10 18:18:00,
2013-02-10 13:24:00,42.8,23.4,30.43,SSE,165,2.0,5.0,46,0.00,,,0.00,Wunderground v.1.15,2013-02-10 18:24:00,
2013-02-10 13:30:00,43.3,23.9,30.43,South,186,2.0,4.0,46,0.00,,,0.00,Wunderground v.1.15,2013-02-10 18:30:00,
2013-02-10 13:36:00,43.4,24.0,30.42,South,169,2.0,4.0,46,0.00,,,0.00,Wunderground v.1.15,2013-02-10 18:36:00,
2013-02-10 13:42:00,43.5,23.5,30.42,South,180,2.0,3.0,45,0.00,,,0.00,Wunderground v.1.15,2013-02-10 18:42:00,
2013-02-10 13:48:00,43.8,23.8,30.41,SSE,161,2.0,3.0,45,0.00,,,0.00,Wunderground v.1.15,2013-02-10 18:48:00,
2013-02-10 13:54:00,44.0,23.5,30.40,South,186,2.0,4.0,44,0.00,,,0.00,Wunderground v.1.15,2013-02-10 18:54:00,
2013-02-10 14:00:00,44.5,23.4,30.40,SSE,164,2.0,2.0,43,0.00,,,0.00,Wunderground v.1.15,2013-02-10 19:00:00,
2013-02-10 14:06:00,44.8,23.6,30.39,SSE,158,3.0,4.0,43,0.00,,,0.00,Wunderground v.1.15,2013-02-10 19:06:00,
2013-02-10 14:12:00,44.6,23.5,30.39,WSW,246,3.0,4.0,43,0.00,,,0.00,Wunderground v.1.15,2013-02-10 19:12:00,
2013-02-10 14:18:00,45.4,23.6,30.39,SSE,157,3.0,4.0,42,0.00,,,0.00,Wunderground v.1.15,2013-02-10 19:18:00,
2013-02-10 14:24:00,45.2,23.4,30.38,South,176,2.0,5.0,42,0.00,,,0.00,Wunderground v.1.15,2013-02-10 19:24:00,
2013-02-10 14:30:00,45.3,23.0,30.38,South,175,3.0,3.0,41,0.00,,,0.00,Wunderground v.1.15,2013-02-10 19:30:00,
2013-02-10 14:36:00,45.4,23.0,30.38,South,181,4.0,4.0,41,0.00,,,0.00,Wunderground v.1.15,2013-02-10 19:36:00,
2013-02-10 14:42:00,45.4,23.0,30.38,SSW,203,3.0,3.0,41,0.00,,,0.00,Wunderground v.1.15,2013-02-10 19:42:00,
2013-02-10 14:48:00,45.3,23.5,30.38,South,178,2.0,3.0,42,0.00,,,0.00,Wunderground v.1.15,2013-02-10 19:48:00,
2013-02-10 14:54:00,45.3,23.5,30.38,South,185,2.0,3.0,42,0.00,,,0.00,Wunderground v.1.15,2013-02-10 19:54:00,
2013-02-10 15:00:00,45.7,23.9,30.38,South,184,2.0,2.0,42,0.00,,,0.00,Wunderground v.1.15,2013-02-10 20:00:00,
2013-02-10 15:06:00,45.8,24.0,30.37,SSE,161,2.0,5.0,42,0.00,,,0.00,Wunderground v.1.15,2013-02-10 20:06:00,
2013-02-10 15:12:00,45.8,24.0,30.36,SSE,157,3.0,5.0,42,0.00,,,0.00,Wunderground v.1.15,2013-02-10 20:12:00,
2013-02-10 15:18:00,46.0,23.6,30.36,SSE,147,3.0,6.0,41,0.00,,,0.00,Wunderground v.1.15,2013-02-10 20:18:00,
2013-02-10 15:24:00,46.3,23.9,30.36,WSW,246,3.0,5.0,41,0.00,,,0.00,Wunderground v.1.15,2013-02-10 20:24:00,
2013-02-10 15:30:00,46.3,23.3,30.36,WSW,239,2.0,5.0,40,0.00,,,0.00,Wunderground v.1.15,2013-02-10 20:30:00,
2013-02-10 15:36:00,46.5,24.0,30.35,South,182,3.0,5.0,41,0.00,,,0.00,Wunderground v.1.15,2013-02-10 20:36:00,
2013-02-10 15:42:00,46.4,23.4,30.35,SSE,163,3.0,5.0,40,0.00,,,0.00,Wunderground v.1.15,2013-02-10 20:42:00,
2013-02-10 15:48:00,46.4,23.9,30.35,South,180,3.0,5.0,41,0.00,,,0.00,Wunderground v.1.15,2013-02-10 20:48:00,
2013-02-10 15:54:00,46.4,23.4,30.35,South,178,4.0,8.0,40,0.00,,,0.00,Wunderground v.1.15,2013-02-10 20:54:00,
2013-02-10 16:00:00,46.6,24.1,30.36,South,172,2.0,5.0,41,0.00,,,0.00,Wunderground v.1.15,2013-02-10 21:00:00,
2013-02-10 16:06:00,46.6,24.1,30.35,SE,146,3.0,5.0,41,0.00,,,0.00,Wunderground v.1.15,2013-02-10 21:06:00,
2013-02-10 16:12:00,46.6,24.7,30.35,SSE,164,2.0,4.0,42,0.00,,,0.00,Wunderground v.1.15,2013-02-10 21:12:00,
2013-02-10 16:18:00,46.5,24.6,30.35,SSE,147,2.0,12.0,42,0.00,,,0.00,Wunderground v.1.15,2013-02-10 21:18:00,
2013-02-10 16:24:00,46.4,24.5,30.35,South,178,3.0,5.0,42,0.00,,,0.00,Wunderground v.1.15,2013-02-10 21:24:00,
2013-02-10 16:30:00,46.7,24.8,30.35,SSE,155,2.0,2.0,42,0.00,,,0.00,Wunderground v.1.15,2013-02-10 21:30:00,
2013-02-10 16:36:00,46.8,24.9,30.34,South,180,2.0,5.0,42,0.00,,,0.00,Wunderground v.1.15,2013-02-10 21:36:00,
2013-02-10 16:42:00,46.8,24.9,30.34,SSE,161,2.0,5.0,42,0.00,,,0.00,Wunderground v.1.15,2013-02-10 21:42:00,
2013-02-10 16:48:00,46.6,24.1,30.35,SSE,163,3.0,6.0,41,0.00,,,0.00,Wunderground v.1.15,2013-02-10 21:48:00,
2013-02-10 16:54:00,46.4,24.5,30.35,South,190,3.0,5.0,42,0.00,,,0.00,Wunderground v.1.15,2013-02-10 21:54:00,
2013-02-10 17:00:00,46.3,25.0,30.35,SSE,159,1.0,5.0,43,0.00,,,0.00,Wunderground v.1.15,2013-02-10 22:00:00,
2013-02-10 17:06:00,46.1,24.8,30.35,SSE,161,1.0,5.0,43,0.00,,,0.00,Wunderground v.1.15,2013-02-10 22:06:00,
2013-02-10 17:12:00,46.0,24.7,30.34,SSE,161,1.0,5.0,43,0.00,,,0.00,Wunderground v.1.15,2013-02-10 22:12:00,
2013-02-10 17:18:00,45.9,25.2,30.34,SSE,161,1.0,5.0,44,0.00,,,0.00,Wunderground v.1.15,2013-02-10 22:18:00,
2013-02-10 17:24:00,45.7,25.5,30.34,SSE,161,0.0,5.0,45,0.00,,,0.00,Wunderground v.1.15,2013-02-10 22:24:00,
2013-02-10 17:30:00,45.5,25.4,30.34,SSE,161,0.0,5.0,45,0.00,,,0.00,Wunderground v.1.15,2013-02-10 22:30:00,
2013-02-10 17:36:00,45.4,25.3,30.34,SSE,161,0.0,5.0,45,0.00,,,0.00,Wunderground v.1.15,2013-02-10 22:36:00,
2013-02-10 17:42:00,45.2,25.1,30.34,SSE,161,0.0,5.0,45,0.00,,,0.00,Wunderground v.1.15,2013-02-10 22:42:00,
2013-02-10 17:48:00,45.0,25.4,30.34,SSE,161,0.0,5.0,46,0.00,,,0.00,Wunderground v.1.15,2013-02-10 22:48:00,
2013-02-10 17:54:00,44.9,25.3,30.34,SSE,161,0.0,5.0,46,0.00,,,0.00,Wunderground v.1.15,2013-02-10 22:54:00,
2013-02-10 18:00:00,44.6,25.6,30.34,SSE,161,0.0,5.0,47,0.00,,,0.00,Wunderground v.1.15,2013-02-10 23:00:00,
2013-02-10 18:06:00,44.3,25.3,30.33,SSE,161,0.0,5.0,47,0.00,,,0.00,Wunderground v.1.15,2013-02-10 23:06:00,
2013-02-10 18:12:00,44.0,25.5,30.34,SSE,161,0.0,5.0,48,0.00,,,0.00,Wunderground v.1.15,2013-02-10 23:12:00,
2013-02-10 18:18:00,43.9,25.5,30.34,SSE,161,0.0,5.0,48,0.00,,,0.00,Wunderground v.1.15,2013-02-10 23:18:00,
2013-02-10 18:24:00,43.7,25.3,30.34,SSE,161,0.0,5.0,48,0.00,,,0.00,Wunderground v.1.15,2013-02-10 23:24:00,
2013-02-10 18:30:00,43.6,25.2,30.33,SSE,161,0.0,5.0,48,0.00,,,0.00,Wunderground v.1.15,2013-02-10 23:30:00,
2013-02-10 18:36:00,43.4,25.5,30.33,SSE,161,0.0,5.0,49,0.00,,,0.00,Wunderground v.1.15,2013-02-10 23:36:00,
2013-02-10 18:42:00,43.2,25.3,30.33,SSE,161,0.0,5.0,49,0.00,,,0.00,Wunderground v.1.15,2013-02-10 23:42:00,
2013-02-10 18:48:00,43.0,25.1,30.33,SSE,161,0.0,5.0,49,0.00,,,0.00,Wunderground v.1.15,2013-02-10 23:48:00,
2013-02-10 18:54:00,42.9,25.0,30.33,SSE,161,0.0,5.0,49,0.00,,,0.00,Wunderground v.1.15,2013-02-10 23:54:00,
2013-02-10 19:00:00,42.8,25.4,30.32,SSE,161,0.0,5.0,50,0.00,,,0.00,Wunderground v.1.15,2013-02-11 00:00:00,
2013-02-10 19:06:00,42.8,25.4,30.32,SSE,161,1.0,5.0,50,0.00,,,0.00,Wunderground v.1.15,2013-02-11 00:06:00,
2013-02-10 19:12:00,42.8,25.4,30.32,SSE,161,0.0,5.0,50,0.00,,,0.00,Wunderground v.1.15,2013-02-11 00:12:00,
2013-02-10 19:18:00,42.8,25.9,30.32,SSE,161,1.0,5.0,51,0.00,,,0.00,Wunderground v.1.15,2013-02-11 00:18:00,
2013-02-10 19:24:00,42.9,26.0,30.33,SSE,159,1.0,5.0,51,0.00,,,0.00,Wunderground v.1.15,2013-02-11 00:24:00,
2013-02-10 19:30:00,42.9,26.0,30.33,SSE,166,1.0,5.0,51,0.00,,,0.00,Wunderground v.1.15,2013-02-11 00:30:00,
2013-02-10 19:36:00,42.9,26.0,30.34,SSE,167,1.0,5.0,51,0.00,,,0.00,Wunderground v.1.15,2013-02-11 00:36:00,
2013-02-10 19:42:00,42.7,25.8,30.33,SSE,167,1.0,5.0,51,0.00,,,0.00,Wunderground v.1.15,2013-02-11 00:42:00,
2013-02-10 19:48:00,42.5,25.6,30.33,SSE,167,0.0,5.0,51,0.00,,,0.00,Wunderground v.1.15,2013-02-11 00:48:00,
2013-02-10 19:54:00,42.4,26.0,30.33,SSE,165,0.0,5.0,52,0.00,,,0.00,Wunderground v.1.15,2013-02-11 00:54:00,
2013-02-10 20:00:00,42.4,26.0,30.33,SSE,165,1.0,1.0,52,0.00,,,0.00,Wunderground v.1.15,2013-02-11 01:00:00,
2013-02-10 20:06:00,42.3,25.9,30.33,South,186,1.0,5.0,52,0.00,,,0.00,Wunderground v.1.15,2013-02-11 01:06:00,
2013-02-10 20:12:00,42.3,25.9,30.33,South,186,1.0,5.0,52,0.00,,,0.00,Wunderground v.1.15,2013-02-11 01:12:00,
2013-02-10 20:18:00,42.2,25.8,30.33,South,186,0.0,5.0,52,0.00,,,0.00,Wunderground v.1.15,2013-02-11 01:18:00,
2013-02-10 20:24:00,42.1,26.2,30.33,South,186,0.0,5.0,53,0.00,,,0.00,Wunderground v.1.15,2013-02-11 01:24:00,
2013-02-10 20:30:00,42.1,26.2,30.33,South,186,0.0,5.0,53,0.00,,,0.00,Wunderground v.1.15,2013-02-11 01:30:00,
2013-02-10 20:36:00,42.1,26.2,30.33,South,186,0.0,5.0,53,0.00,,,0.00,Wunderground v.1.15,2013-02-11 01:36:00,
2013-02-10 20:42:00,42.1,26.2,30.33,South,186,0.0,5.0,53,0.00,,,0.00,Wunderground v.1.15,2013-02-11 01:42:00,
2013-02-10 20:48:00,42.2,26.3,30.33,South,186,0.0,5.0,53,0.00,,,0.00,Wunderground v.1.15,2013-02-11 01:48:00,
2013-02-10 20:54:00,42.2,26.3,30.32,South,186,0.0,5.0,53,0.00,,,0.00,Wunderground v.1.15,2013-02-11 01:54:00,
2013-02-10 21:00:00,42.2,26.3,30.32,South,186,0.0,5.0,53,0.00,,,0.00,Wunderground v.1.15,2013-02-11 02:00:00,
2013-02-10 21:06:00,42.2,26.7,30.32,South,186,0.0,5.0,54,0.00,,,0.00,Wunderground v.1.15,2013-02-11 02:06:00,
2013-02-10 21:12:00,42.2,26.7,30.32,South,186,0.0,5.0,54,0.00,,,0.00,Wunderground v.1.15,2013-02-11 02:12:00,
2013-02-10 21:18:00,42.3,26.8,30.32,South,186,0.0,5.0,54,0.00,,,0.00,Wunderground v.1.15,2013-02-11 02:18:00,
2013-02-10 21:24:00,42.4,26.9,30.31,South,186,1.0,5.0,54,0.00,,,0.00,Wunderground v.1.15,2013-02-11 02:24:00,
2013-02-10 21:30:00,42.3,26.8,30.31,South,186,1.0,1.0,54,0.00,,,0.00,Wunderground v.1.15,2013-02-11 02:30:00,
2013-02-10 21:36:00,42.3,27.3,30.31,South,186,1.0,5.0,55,0.00,,,0.00,Wunderground v.1.15,2013-02-11 02:36:00,
2013-02-10 21:42:00,42.4,26.9,30.30,South,171,1.0,5.0,54,0.00,,,0.00,Wunderground v.1.15,2013-02-11 02:42:00,
2013-02-10 21:48:00,42.6,27.5,30.30,South,171,1.0,5.0,55,0.00,,,0.00,Wunderground v.1.15,2013-02-11 02:48:00,
2013-02-10 21:54:00,42.7,27.6,30.30,South,173,1.0,5.0,55,0.00,,,0.00,Wunderground v.1.15,2013-02-11 02:54:00,
2013-02-10 22:00:00,43.0,27.9,30.30,South,178,1.0,5.0,55,0.00,,,0.00,Wunderground v.1.15,2013-02-11 03:00:00,
2013-02-10 22:06:00,43.2,28.1,30.29,SSE,165,2.0,5.0,55,0.00,,,0.00,Wunderground v.1.15,2013-02-11 03:06:00,
2013-02-10 22:12:00,43.3,28.2,30.29,SE,126,2.0,5.0,55,0.00,,,0.00,Wunderground v.1.15,2013-02-11 03:12:00,
2013-02-10 22:18:00,43.4,27.8,30.29,South,188,2.0,5.0,54,0.00,,,0.00,Wunderground v.1.15,2013-02-11 03:18:00,
2013-02-10 22:24:00,43.4,27.8,30.30,SSE,161,2.0,5.0,54,0.00,,,0.00,Wunderground v.1.15,2013-02-11 03:24:00,
2013-02-10 22:30:00,43.3,27.8,30.29,SSW,192,2.0,5.0,54,0.00,,,0.00,Wunderground v.1.15,2013-02-11 03:30:00,
2013-02-10 22:36:00,43.2,28.1,30.29,SSE,161,2.0,5.0,55,0.00,,,0.00,Wunderground v.1.15,2013-02-11 03:36:00,
2013-02-10 22:42:00,43.1,28.0,30.29,SSE,161,2.0,5.0,55,0.00,,,0.00,Wunderground v.1.15,2013-02-11 03:42:00,
2013-02-10 22:48:00,43.0,28.4,30.28,SSE,149,2.0,5.0,56,0.00,,,0.00,Wunderground v.1.15,2013-02-11 03:48:00,
2013-02-10 22:54:00,43.0,28.4,30.28,SSE,167,3.0,5.0,56,0.00,,,0.00,Wunderground v.1.15,2013-02-11 03:54:00,
2013-02-10 23:00:00,43.0,28.4,30.28,SSE,165,2.0,5.0,56,0.00,,,0.00,Wunderground v.1.15,2013-02-11 04:00:00,
2013-02-10 23:06:00,43.0,28.4,30.28,South,184,2.0,5.0,56,0.00,,,0.00,Wunderground v.1.15,2013-02-11 04:06:00,
2013-02-10 23:12:00,43.0,28.8,30.28,South,184,3.0,5.0,57,0.00,,,0.00,Wunderground v.1.15,2013-02-11 04:12:00,
2013-02-10 23:18:00,42.8,29.9,30.27,SSW,202,2.0,5.0,60,0.00,,,0.00,Wunderground v.1.15,2013-02-11 04:18:00,
2013-02-10 23:24:00,42.2,31.3,30.26,South,171,2.0,5.0,65,0.00,,,0.00,Wunderground v.1.15,2013-02-11 04:24:00,
2013-02-10 23:30:00,41.5,32.1,30.26,SE,145,1.0,1.0,69,0.00,,,0.00,Wunderground v.1.15,2013-02-11 04:30:00,
2013-02-10 23:36:00,40.8,32.1,30.25,SE,127,1.0,5.0,71,0.00,,,0.00,Wunderground v.1.15,2013-02-11 04:36:00,
2013-02-10 23:42:00,40.4,32.4,30.25,SE,137,1.0,5.0,73,0.00,,,0.01,Wunderground v.1.15,2013-02-11 04:42:00,
2013-02-10 23:48:00,40.1,32.8,30.25,SE,137,0.0,5.0,75,0.00,,,0.01,Wunderground v.1.15,2013-02-11 04:48:00,
2013-02-10 23:54:00,39.9,33.3,30.25,SE,137,0.0,5.0,77,0.00,,,0.01,Wunderground v.1.15,2013-02-11 04:54:00,